Newton, KS

9:38 PM CST on December 14, 2017 (GMT -0600)
Newton City County

Weather History for KEWK - March, 2013

Change the Weather History Date:

Saturday, March 16, 2013

  Actual Average Record
Temperature  
Mean Temperature 46 °F -  
Max Temperature 57 °F 52 °F 82 °F (2015)
Min Temperature 33 °F 31 °F -5 °F (2014)
Degree Days  
Heating Degree Days 19    
Moisture  
Dew Point 32 °F    
Average Humidity 63    
Maximum Humidity 76    
Minimum Humidity 53    
Precipitation  
Precipitation 0.00 in - - ()
Sea Level Pressure  
Sea Level Pressure 29.92 in    
Wind  
Wind Speed 15 mph (NNE)    
Max Wind Speed 25 mph    
Max Gust Speed 31 mph    
Visibility 10 miles    
Events      
Averages and records for this station are not official NWS values.
T = Trace of Precipitation, MM = Missing Value Source: NWS Daily Summary

Daily Weather History Graph

Daily Weather History Graph

Search for Another Location

Airport or City:

Trip Planner

Search our weather history database for the weather conditions in past years. The results will help you decide how hot, cold, wet, or windy it might be!

Date:

Astronomy

Mar. 16, 2013 Rise Set
Actual Time 7:38 AM CDT 7:37 PM CDT
Civil Twilight 7:12 AM CDT 8:03 PM CDT
Nautical Twilight 6:41 AM CDT 8:34 PM CDT
Astronomical Twilight 6:10 AM CDT 9:05 PM CDT
Moon 10:13 AM CDT (3/16) No Moon Set
Length of Visible Light 12h 51m
Length of Day
11h 59m
Waxing Crescent, 23% of the Moon is Illuminated
Mar 16
Waxing Crescent
Mar 19
First Quarter
Mar 27
Full
Apr 2
Last Quarter
Apr 10
New

Hourly Weather History & Observations

Time (CDT) Temp. Windchill Dew Point Humidity Pressure Visibility Wind Dir Wind Speed Gust Speed Precip Events Conditions
12:55 AM 55.4 °F - 44.6 °F 67% 29.74 in 10.0 mi WSW 5.8 mph - N/A   Clear
1:15 AM 57.2 °F - 44.6 °F 63% 29.74 in 10.0 mi West 5.8 mph - N/A   Clear
1:35 AM 55.4 °F - 44.6 °F 67% 29.75 in 10.0 mi NNW 8.1 mph - N/A   Clear
1:55 AM 55.4 °F - 44.6 °F 67% 29.76 in 10.0 mi North 13.8 mph - N/A   Clear
2:15 AM 53.6 °F - 42.8 °F 67% 29.76 in 10.0 mi NNE 16.1 mph - N/A   Clear
2:35 AM 53.6 °F - 42.8 °F 67% 29.77 in 10.0 mi NNE 20.7 mph 28.8 mph N/A   Clear
2:55 AM 51.8 °F - 39.2 °F 62% 29.78 in 10.0 mi NE 16.1 mph 26.5 mph N/A   Clear
3:15 AM 51.8 °F - 39.2 °F 62% 29.81 in 10.0 mi East 9.2 mph - N/A   Clear
3:35 AM 50.0 °F - 39.2 °F 66% 29.81 in 10.0 mi NE 10.4 mph - N/A   Clear
3:55 AM 48.2 °F - 39.2 °F 71% 29.81 in 10.0 mi NE 10.4 mph - N/A   Clear
4:15 AM 48.2 °F - 37.4 °F 66% 29.81 in 10.0 mi ENE 10.4 mph - N/A   Clear
4:35 AM 48.2 °F - 37.4 °F 66% 29.81 in 10.0 mi NE 10.4 mph 18.4 mph N/A   Clear
4:55 AM 48.2 °F - 37.4 °F 66% 29.83 in 10.0 mi NE 12.7 mph 18.4 mph N/A   Clear
5:15 AM 48.2 °F - 37.4 °F 66% 29.82 in 10.0 mi NE 15.0 mph 21.9 mph N/A   Clear
5:35 AM 46.4 °F 40.4 °F 35.6 °F 66% 29.84 in 10.0 mi NNE 13.8 mph 20.7 mph N/A   Clear
5:55 AM 46.4 °F 40.1 °F 35.6 °F 66% 29.84 in 10.0 mi NNE 15.0 mph - N/A   Clear
6:15 AM 46.4 °F 39.8 °F 35.6 °F 66% 29.85 in 10.0 mi NE 16.1 mph 20.7 mph N/A   Clear
6:35 AM 46.4 °F 39.0 °F 35.6 °F 66% 29.85 in 10.0 mi NE 19.6 mph 27.6 mph N/A   Clear
6:55 AM 44.6 °F 37.2 °F 35.6 °F 71% 29.87 in 10.0 mi NNE 17.3 mph 27.6 mph N/A   Clear
7:15 AM 44.6 °F 37.4 °F 33.8 °F 66% 29.89 in 10.0 mi NNE 16.1 mph 29.9 mph N/A   Clear
7:35 AM 42.8 °F 34.0 °F 33.8 °F 70% 29.90 in 9.0 mi NNE 20.7 mph 25.3 mph N/A   Clear
7:55 AM 42.8 °F 34.5 °F 33.8 °F 70% 29.91 in 7.0 mi NNE 18.4 mph 27.6 mph N/A   Clear
8:15 AM 41.0 °F 31.6 °F 33.8 °F 76% 29.92 in 6.0 mi NNE 20.7 mph 27.6 mph N/A   Clear
8:35 AM 41.0 °F 31.4 °F 33.8 °F 76% 29.93 in 6.0 mi NNE 21.9 mph 26.5 mph N/A   Clear
8:55 AM 41.0 °F 32.5 °F 33.8 °F 76% 29.94 in 6.0 mi NNE 17.3 mph 28.8 mph N/A   Clear
9:15 AM 42.8 °F 34.0 °F 33.8 °F 70% 29.96 in 7.0 mi NNE 20.7 mph 25.3 mph N/A   Clear
9:35 AM 42.8 °F 34.0 °F 33.8 °F 70% 29.96 in 9.0 mi NNE 20.7 mph 31.1 mph N/A   Clear
9:55 AM 42.8 °F 33.1 °F 32.0 °F 66% 29.97 in 10.0 mi NNE 25.3 mph - N/A   Clear
10:15 AM 42.8 °F 33.5 °F 30.2 °F 61% 29.98 in 10.0 mi NNE 23.0 mph 27.6 mph N/A   Clear
10:35 AM 42.8 °F 34.0 °F 32.0 °F 66% 29.98 in 10.0 mi NNE 20.7 mph 24.2 mph N/A   Clear
10:55 AM 42.8 °F 34.0 °F 30.2 °F 61% 29.98 in 10.0 mi NNE 20.7 mph 27.6 mph N/A   Clear
11:15 AM 42.8 °F 34.0 °F 30.2 °F 61% 29.99 in 10.0 mi NNE 20.7 mph 28.8 mph N/A   Clear
11:35 AM 42.8 °F 34.8 °F 30.2 °F 61% 29.99 in 10.0 mi NE 17.3 mph 23.0 mph N/A   Partly Cloudy
11:55 AM 42.8 °F 34.5 °F 32.0 °F 66% 29.99 in 10.0 mi NE 18.4 mph 24.2 mph N/A   Partly Cloudy
12:15 PM 42.8 °F 35.1 °F 30.2 °F 61% 29.99 in 10.0 mi NE 16.1 mph 25.3 mph N/A   Clear
12:35 PM 42.8 °F 34.5 °F 30.2 °F 61% 29.99 in 10.0 mi NE 18.4 mph 24.2 mph N/A   Clear
12:55 PM 44.6 °F 35.9 °F 30.2 °F 57% 29.98 in 10.0 mi NNE 23.0 mph 28.8 mph N/A   Clear
1:15 PM 46.4 °F 39.2 °F 30.2 °F 53% 29.98 in 10.0 mi NNE 18.4 mph 25.3 mph N/A   Clear
1:35 PM 46.4 °F 39.8 °F 30.2 °F 53% 29.99 in 10.0 mi NE 16.1 mph 21.9 mph N/A   Clear
1:55 PM 44.6 °F 36.4 °F 30.2 °F 57% 29.99 in 10.0 mi NNE 20.7 mph 24.2 mph N/A   Clear
2:15 PM 48.2 °F - 32.0 °F 54% 29.98 in 10.0 mi NNE 20.7 mph 26.5 mph N/A   Clear
2:35 PM 48.2 °F - 32.0 °F 54% 29.98 in 10.0 mi NNE 20.7 mph 27.6 mph N/A   Clear
2:55 PM 48.2 °F - 32.0 °F 54% 29.97 in 10.0 mi NNE 19.6 mph 26.5 mph N/A   Clear
3:15 PM 46.4 °F 38.3 °F 32.0 °F 57% 29.96 in 10.0 mi NNE 23.0 mph 28.8 mph N/A   Clear
3:35 PM 46.4 °F 39.0 °F 30.2 °F 53% 29.96 in 10.0 mi NNE 19.6 mph 27.6 mph N/A   Clear
3:55 PM 46.4 °F 39.0 °F 30.2 °F 53% 29.95 in 10.0 mi NE 19.6 mph 28.8 mph N/A   Clear
4:15 PM 46.4 °F 38.5 °F 30.2 °F 53% 29.94 in 10.0 mi NNE 21.9 mph 28.8 mph N/A   Clear
4:35 PM 46.4 °F 39.2 °F 30.2 °F 53% 29.94 in 10.0 mi NNE 18.4 mph 28.8 mph N/A   Clear
4:55 PM 44.6 °F 36.6 °F 30.2 °F 57% 29.93 in 10.0 mi NNE 19.6 mph 27.6 mph N/A   Clear
5:15 PM 44.6 °F 35.9 °F 28.4 °F 53% 29.94 in 10.0 mi NNE 23.0 mph 28.8 mph N/A   Clear
5:35 PM 44.6 °F 37.4 °F 28.4 °F 53% 29.95 in 10.0 mi NE 16.1 mph 26.5 mph N/A   Clear
5:55 PM 42.8 °F 34.0 °F 28.4 °F 57% 29.95 in 10.0 mi NE 20.7 mph 27.6 mph N/A   Clear
6:15 PM 42.8 °F 34.5 °F 28.4 °F 57% 29.95 in 10.0 mi NE 18.4 mph 24.2 mph N/A   Clear
6:35 PM 41.0 °F 32.8 °F 28.4 °F 61% 29.96 in 10.0 mi NE 16.1 mph 25.3 mph N/A   Clear
6:55 PM 41.0 °F 32.2 °F 28.4 °F 61% 29.96 in 10.0 mi NE 18.4 mph 24.2 mph N/A   Clear
7:15 PM 39.2 °F 30.5 °F 26.6 °F 61% 29.97 in 10.0 mi NNE 16.1 mph 24.2 mph N/A   Clear
7:35 PM 39.2 °F 30.8 °F 26.6 °F 61% 29.97 in 10.0 mi NE 15.0 mph 20.7 mph N/A   Clear
7:55 PM 39.2 °F 30.8 °F 26.6 °F 61% 29.97 in 10.0 mi NNE 15.0 mph - N/A   Clear
8:15 PM 37.4 °F 30.3 °F 26.6 °F 65% 29.98 in 10.0 mi NE 10.4 mph 20.7 mph N/A   Clear
8:35 PM 37.4 °F 28.5 °F 26.6 °F 65% 29.98 in 10.0 mi NE 15.0 mph 20.7 mph N/A   Clear
8:55 PM 37.4 °F 27.8 °F 26.6 °F 65% 29.98 in 10.0 mi NNE 17.3 mph 21.9 mph N/A   Clear
9:15 PM 37.4 °F 27.2 °F 26.6 °F 65% 29.98 in 10.0 mi NE 19.6 mph 24.2 mph N/A   Clear
9:35 PM 37.4 °F 27.8 °F 26.6 °F 65% 29.98 in 10.0 mi NNE 17.3 mph 24.2 mph N/A   Clear
9:55 PM 37.4 °F 27.5 °F 26.6 °F 65% 29.99 in 10.0 mi NE 18.4 mph 23.0 mph N/A   Clear
10:15 PM 35.6 °F 25.2 °F 26.6 °F 70% 30.00 in 10.0 mi NNE 18.4 mph 23.0 mph N/A   Scattered Clouds
10:35 PM 35.6 °F 25.9 °F 24.8 °F 65% 29.99 in 10.0 mi NE 16.1 mph 24.2 mph N/A   Mostly Cloudy
10:55 PM 35.6 °F 25.2 °F 24.8 °F 65% 30.00 in 10.0 mi NE 18.4 mph 24.2 mph N/A   Clear
11:15 PM 35.6 °F 25.5 °F 24.8 °F 65% 30.01 in 10.0 mi NNE 17.3 mph 24.2 mph N/A   Clear
11:35 PM 35.6 °F 25.5 °F 24.8 °F 65% 30.00 in 10.0 mi NNE 17.3 mph 23.0 mph N/A   Mostly Cloudy
11:55 PM 33.8 °F 23.2 °F 24.8 °F 70% 30.00 in 10.0 mi NE 17.3 mph 25.3 mph N/A   Overcast